FW1555 Weather Reports


Display with metric or nautical units.
time (UTC)temp
F
wind
direction
speed
MPH
gust
MPH
rain 1hr
in
rain 24hr
in
rain mn
in
humidity
%
barometer
mb
20260502204554 60 0 1.0 21.0 0.00 0.04 0.04 42 1009.2
20260502203048 60 266 1.0 7.0 0.00 0.04 0.04 41 1009.3
20260502201551 59 246 2.0 9.0 0.00 0.04 0.04 46 1009.5
20260502200052 58 0 0.0 1.0 0.00 0.04 0.04 53 1009.7
20260502194546 58 0 0.0 1.0 0.00 0.04 0.04 51 1009.8
20260502193049 58 0 0.0 4.0 0.00 0.04 0.04 52 1010.0
20260502191556 58 0 0.0 3.0 0.00 0.04 0.04 52 1010.3
20260502190057 58 0 0.0 1.0 0.00 0.04 0.04 54 1010.5
20260502184558 58 0 0.0 1.0 0.00 0.04 0.04 58 1010.6
20260502183105 58 0 0.0 4.0 0.00 0.04 0.04 62 1010.6
20260502181550 58 0 0.0 1.0 0.00 0.04 0.04 56 1010.7
20260502163054 56 0 0.0 8.0 0.00 0.04 0.04 65 1011.4
20260502161544 56 0 0.0 2.0 0.00 0.04 0.04 67 1011.4
20260502151549 56 274 0.0 3.0 0.00 0.04 0.04 70 1011.5
20260502123048 50 0 0.0 3.0 0.00 0.04 0.04 92 1011.7
20260502121551 49 0 1.0 5.0 0.00 0.04 0.04 93 1011.7
20260502114548 49 0 0.0 1.0 0.00 0.04 0.04 96 1011.6
20260502113051 49 0 0.0 0.0 0.00 0.04 0.04 96 1011.7
20260502111551 48 0 0.0 0.0 0.00 0.04 0.04 96 1011.5
20260502110044 47 0 0.0 0.0 0.01 0.04 0.04 96 1011.2
20260502104549 47 0 0.0 0.0 0.01 0.04 0.04 95 1011.2
20260502103047 47 0 0.0 0.0 0.02 0.04 0.04 95 1011.1
20260502101553 47 0 0.0 0.0 0.03 0.04 0.04 95 1011.2
20260502070101 50 0 0.0 0.0 0.00 0.00 0.00 90 1011.1
20260502064548 50 0 0.0 0.0 0.00 0.00 0.00 88 1011.0
20260502063048 50 0 0.0 0.0 0.00 0.00 0.00 89 1010.9
20260502061545 50 0 0.0 0.0 0.00 0.00 0.00 88 1011.0
20260502060045 50 0 0.0 0.0 0.00 0.00 0.00 88 1011.2
20260502054544 50 0 0.0 0.0 0.00 0.01 0.00 87 1011.3
20260502053059 50 0 0.0 0.0 0.00 0.01 0.00 86 1011.2
20260502051604 50 0 0.0 0.0 0.00 0.01 0.00 85 1011.2
20260502050051 50 0 0.0 0.0 0.00 0.01 0.00 85 1011.3
20260502044541 50 0 0.0 0.0 0.00 0.01 0.00 85 1011.0
20260502043055 50 0 0.0 0.0 0.00 0.01 0.00 84 1011.2
20260502041602 51 0 0.0 0.0 0.00 0.01 0.00 83 1011.4
20260502040045 50 0 0.0 0.0 0.00 0.01 0.00 82 1011.2
20260502034548 51 0 0.0 0.0 0.00 0.01 0.01 82 1011.2
20260502033059 51 0 0.0 0.0 0.00 0.01 0.01 81 1011.2
20260502031549 51 0 0.0 0.0 0.00 0.01 0.01 80 1011.3
20260502030048 51 0 0.0 0.0 0.00 0.01 0.01 79 1011.4
20260502024547 52 0 0.0 0.0 0.00 0.01 0.01 78 1011.6
20260502023051 52 0 0.0 0.0 0.00 0.01 0.01 77 1011.4
20260502021542 52 0 0.0 0.0 0.00 0.01 0.01 77 1011.5
20260502020054 52 0 0.0 0.0 0.00 0.01 0.01 76 1011.5
20260502014543 53 0 0.0 0.0 0.00 0.01 0.01 75 1011.4
20260502013048 53 0 0.0 0.0 0.00 0.01 0.01 73 1011.1
20260502011546 54 0 0.0 0.0 0.00 0.01 0.01 71 1011.2
20260502010048 55 0 0.0 0.0 0.00 0.01 0.01 69 1011.2
20260502004541 56 0 0.0 0.0 0.00 0.01 0.01 67 1011.1
20260502003045 56 0 0.0 2.0 0.00 0.01 0.01 66 1011.0
20260502001558 56 0 0.0 6.0 0.00 0.01 0.01 66 1010.8
20260502000048 57 0 0.0 3.0 0.00 0.01 0.01 65 1010.7
20260501234547 57 0 0.0 4.0 0.00 0.01 0.01 64 1010.3
20260501233055 57 222 1.0 9.0 0.00 0.01 0.01 62 1010.2
20260501231600 58 153 0.0 7.0 0.00 0.01 0.01 61 1010.0
20260501230049 59 0 0.0 6.0 0.00 0.01 0.01 60 1009.9
20260501224548 59 215 0.0 8.0 0.00 0.01 0.01 58 1009.6
20260501223110 61 252 0.0 6.0 0.00 0.01 0.01 55 1009.5
20260501221551 62 207 1.0 8.0 0.00 0.01 0.01 51 1009.4
20260501220052 63 0 1.0 10.0 0.00 0.01 0.01 48 1009.5
20260501214549 64 238 5.0 14.0 0.00 0.01 0.01 42 1009.4
20260501213047 64 0 1.0 11.0 0.00 0.01 0.01 43 1009.3
20260501211552 64 240 3.0 14.0 0.00 0.01 0.01 42 1009.2
20260501210051 63 0 0.0 7.0 0.00 0.01 0.01 43 1009.2